Regional Weather Roundup
Issued by NWS

Home | Current Version | Previous Version | Graphics & Text | Print | Product List | Glossary On
Versions: 1 2 3 4 5 6 7 8 9 10 11 12 13 14 15 16 17 18 19 20 21 22 23 24 25 26 27 28
000
ASUS45 KBOI 202110
RWRID

IDAHO REGIONAL WEATHER ROUNDUP
NATIONAL WEATHER SERVICE BOISE ID
200 PM MST MON NOV 20 2017

NOTE: "FAIR" INDICATES FEW OR NO CLOUDS BELOW 12000 FEET
WITH NO SIGNIFICANT WEATHER AND/OR OBSTRUCTIONS TO VISIBILITY

IDZ012-014-202200-
SOUTHWEST IDAHO


CITY           SKY/WX    TMP DP  RH WIND       PRES   REMARKS
BOISE          CLOUDY    46  39  76 SE18G29   29.93F
CALDWELL       CLOUDY    48  42  80 E13       29.94R
MOUNTAIN HOME  CLOUDY    43  43 100 E16       29.97S
$$

IDZ016-017-202200-
SOUTHCENTRAL IDAHO


CITY           SKY/WX    TMP DP  RH WIND       PRES   REMARKS
BURLEY         CLOUDY    47  37  68 S14       29.99F
JEROME         LGT RAIN  46  41  82 W6        30.02R
TWIN FALLS     LGT RAIN  45  40  82 S20G28    29.98S
$$

IDZ019>023-202200-
SOUTHEAST IDAHO


CITY           SKY/WX    TMP DP  RH WIND       PRES   REMARKS
IDAHO FALLS    CLOUDY    40  32  73 SW10      30.02R WCI  33
POCATELLO      CLOUDY    45  31  58 SW12      30.02R
REXBURG        CLOUDY    39  31  72 SW13G22   29.99S WCI  31
$$

IDZ006-010-011-018-031-032-202200-
CENTRAL IDAHO MOUNTAINS


CITY           SKY/WX    TMP DP  RH WIND       PRES   REMARKS
MCCALL         LGT RAIN  34  32  92 CALM      29.88F
HAILEY         SNOW      34  34 100 CALM      30.04R VSB 1/2
STANLEY          N/A     37  33  85 SE12G25   29.93S WCI  29
SALMON         LGT RAIN  37  30  75 E3        29.88S
CHALLIS        CLOUDY    47  33  58 S9        29.88F
$$

IDZ002-004-006-007-026-202200-
NORTHERN IDAHO


CITY           SKY/WX    TMP DP  RH WIND       PRES   REMARKS
LEWISTON       CLOUDY    48  44  86 VRB3      29.71R
LOWELL           N/A     39  37  92 CALM      29.81F
COEUR D`ALENE  NOT AVBL
MULLAN PASS    HVY SNOW  30  28  92 VRB6      29.69R VSB<1/4 WCI  24
$$




USA.gov is the U.S. government's official web portal to all federal, state and local government web resources and services.